TimeCDT,TemperatureF,Dew PointF,Humidity,Sea Level PressureIn,VisibilityMPH,Wind Direction,Wind SpeedMPH,Gust SpeedMPH,PrecipitationIn,Events,Conditions,WindDirDegrees,DateUTC
12:56 AM,63.0,52.0,67,30.13,10.0,North,18.4,-,N/A,,Overcast,360,2012-10-08 05:56:00
1:56 AM,63.0,52.0,67,30.13,10.0,North,17.3,-,N/A,,Overcast,360,2012-10-08 06:56:00
2:56 AM,63.0,51.1,65,30.14,10.0,North,21.9,-,N/A,,Overcast,10,2012-10-08 07:56:00
3:56 AM,62.1,51.1,67,30.12,10.0,NNE,23.0,-,N/A,,Overcast,20,2012-10-08 08:56:00
4:11 AM,62.6,51.8,68,30.11,10.0,NNE,19.6,-,N/A,,Overcast,30,2012-10-08 09:11:00
4:56 AM,61.0,51.1,70,30.11,10.0,NNE,20.7,-,N/A,,Overcast,30,2012-10-08 09:56:00
5:32 AM,60.8,51.8,72,30.12,10.0,North,18.4,-,N/A,,Overcast,10,2012-10-08 10:32:00
5:56 AM,61.0,52.0,72,30.13,10.0,North,17.3,-,N/A,,Overcast,10,2012-10-08 10:56:00
6:56 AM,60.1,50.0,69,30.15,10.0,North,18.4,-,N/A,,Overcast,360,2012-10-08 11:56:00
7:56 AM,59.0,50.0,72,30.16,10.0,North,17.3,-,N/A,,Overcast,10,2012-10-08 12:56:00
8:56 AM,59.0,50.0,72,30.18,10.0,North,16.1,-,N/A,,Overcast,10,2012-10-08 13:56:00
9:56 AM,62.1,51.1,67,30.20,10.0,NNE,12.7,-,N/A,,Overcast,20,2012-10-08 14:56:00
10:26 AM,62.6,51.8,68,30.21,10.0,NNE,12.7,-,N/A,,Overcast,20,2012-10-08 15:26:00
10:56 AM,64.0,52.0,65,30.20,10.0,North,12.7,-,N/A,,Overcast,10,2012-10-08 15:56:00
11:03 AM,62.6,51.8,68,30.20,10.0,North,12.7,-,N/A,,Overcast,10,2012-10-08 16:03:00
11:22 AM,64.4,51.8,64,30.20,10.0,NNE,13.8,-,N/A,,Overcast,20,2012-10-08 16:22:00
11:56 AM,64.0,52.0,65,30.20,10.0,NNE,13.8,-,N/A,,Overcast,20,2012-10-08 16:56:00
12:41 PM,64.4,51.8,64,30.19,10.0,North,9.2,-,N/A,,Overcast,10,2012-10-08 17:41:00
12:56 PM,64.9,52.0,63,30.18,10.0,NNE,9.2,-,N/A,,Overcast,20,2012-10-08 17:56:00
1:56 PM,66.0,53.1,63,30.16,10.0,NNE,6.9,-,N/A,,Overcast,30,2012-10-08 18:56:00
2:56 PM,66.9,54.0,63,30.13,10.0,NE,5.8,-,N/A,,Overcast,40,2012-10-08 19:56:00
3:56 PM,68.0,54.0,61,30.11,10.0,ENE,8.1,-,N/A,,Partly Cloudy,60,2012-10-08 20:56:00
4:56 PM,69.1,55.0,61,30.09,10.0,NE,10.4,-,N/A,,Partly Cloudy,40,2012-10-08 21:56:00
5:56 PM,66.9,55.0,66,30.09,10.0,NE,9.2,-,N/A,,Partly Cloudy,50,2012-10-08 22:56:00
6:56 PM,68.0,55.9,65,30.09,10.0,NE,8.1,-,N/A,,Overcast,50,2012-10-08 23:56:00
7:56 PM,68.0,57.0,68,30.09,10.0,ENE,6.9,-,N/A,,Overcast,70,2012-10-09 00:56:00
8:39 PM,68.0,59.0,73,30.10,10.0,East,5.8,-,N/A,,Overcast,90,2012-10-09 01:39:00
8:56 PM,68.0,60.1,76,30.11,10.0,East,4.6,-,N/A,,Overcast,90,2012-10-09 01:56:00
9:32 PM,69.8,60.8,73,30.10,10.0,ENE,8.1,-,N/A,,Overcast,60,2012-10-09 02:32:00
9:56 PM,69.1,62.1,78,30.10,10.0,NE,8.1,-,N/A,,Overcast,50,2012-10-09 02:56:00
10:56 PM,69.1,63.0,81,30.10,10.0,NNE,5.8,-,N/A,,Mostly Cloudy,30,2012-10-09 03:56:00
11:56 PM,66.9,62.1,84,30.09,10.0,NNE,6.9,-,N/A,,Clear,20,2012-10-09 04:56:00